Paris/de Gaulle Arpt, France

12:09 PM CET on February 26, 2017 (GMT +0100)
Paris/de Gaulle Arpt

Weather History for 07157 - January, 2014

Change the Weather History Date:

Wednesday, January 29, 2014

  Actual Average Record
Temperature  
Mean Temperature 39 °F -  
Max Temperature 41 °F 45 °F - ()
Min Temperature 37 °F 34 °F - ()
Degree Days  
Heating Degree Days 26    
Moisture  
Dew Point 36 °F    
Average Humidity 86    
Maximum Humidity 93    
Minimum Humidity 67    
Precipitation  
Precipitation 0.08 in - - ()
Sea Level Pressure  
Sea Level Pressure 29.32 in    
Wind  
Wind Speed 11 mph ()    
Max Wind Speed 16 mph    
Max Gust Speed -    
Visibility 6.3 miles    
Events Rain , Snow    
T = Trace of Precipitation, MM = Missing Value Source: Averaged Metar Reports

Daily Weather History Graph

Daily Weather History Graph

Search for Another Location

Airport or City:

Trip Planner

Search our weather history database for the weather conditions in past years. The results will help you decide how hot, cold, wet, or windy it might be!

Date:

Astronomy

Jan. 29, 2014 Rise Set
Actual Time 8:24 AM CET 5:41 PM CET
Civil Twilight 7:50 AM CET 6:16 PM CET
Nautical Twilight 7:11 AM CET 6:54 PM CET
Astronomical Twilight 6:34 AM CET 7:31 PM CET
Moon 6:49 AM CET (1/29) 4:22 PM CET (1/29)
Length of Visible Light 10h 26m
Length of Day
9h 17m
Waning Crescent, 3% of the Moon is Illuminated
Jan 29
Waning Crescent
Jan 30
New
Feb 6
First Quarter
Feb 15
Full
Feb 22
Last Quarter

Hourly Weather History & Observations

Time (CET) Temp. Windchill Dew Point Humidity Pressure Visibility Wind Dir Wind Speed Gust Speed Precip Events Conditions
12:00 AM 40 °F - 37 °F 87% 29.29 in 9 mi ESE 15.0 mph - - Rain Light Rain
12:00 AM 41.0 °F 33.1 °F 37.4 °F 87% 29.27 in 6.2 mi ESE 15.0 mph - N/A Rain Light Rain
12:30 AM 39.2 °F 31.2 °F 37.4 °F 93% 29.27 in 6.2 mi ESE 13.8 mph - N/A Rain Light Rain
1:00 AM 40 °F - 37 °F 87% 29.29 in 9 mi ESE 15.0 mph - - Rain Light Rain
1:00 AM 41.0 °F 33.1 °F 37.4 °F 87% 29.27 in 6.2 mi ESE 15.0 mph - N/A   Mostly Cloudy
1:30 AM 39.2 °F 31.2 °F 37.4 °F 93% 29.27 in 6.2 mi ESE 13.8 mph - N/A   Mostly Cloudy
2:00 AM 40 °F - 37 °F 87% 29.28 in 9 mi ESE 13.8 mph - - Rain Light Rain
2:00 AM 39.2 °F 31.2 °F 37.4 °F 93% 29.27 in 6.2 mi ESE 13.8 mph - N/A   Overcast
2:30 AM 39.2 °F 31.6 °F 37.4 °F 93% 29.27 in 6.2 mi ESE 12.7 mph - N/A Rain Light Rain
3:00 AM 40 °F - 37 °F 84% 29.28 in 7 mi ESE 15.0 mph - - Rain Light Rain
3:00 AM 39.2 °F 30.8 °F 37.4 °F 93% 29.24 in 6.2 mi ESE 15.0 mph - N/A Rain Light Rain
3:30 AM 39.2 °F 30.8 °F 37.4 °F 93% 29.24 in 6.2 mi ESE 15.0 mph - N/A Rain Light Rain
4:00 AM 40 °F - 36 °F 79% 29.27 in 7 mi ESE 13.8 mph - - Rain Light Rain
4:00 AM 39.2 °F 31.2 °F 35.6 °F 87% 29.24 in 6.2 mi ESE 13.8 mph - N/A Rain Light Rain
4:30 AM 39.2 °F 31.6 °F 35.6 °F 87% 29.24 in 6.2 mi SE 12.7 mph - N/A Rain Light Rain
5:00 AM 39 °F - 35 °F 80% 29.26 in 6 mi SE 13.8 mph - - Rain Light Rain
5:00 AM 39.2 °F 31.2 °F 35.6 °F 87% 29.24 in 6.2 mi ESE 13.8 mph - N/A Rain Light Rain
5:30 AM 39.2 °F 32.0 °F 35.6 °F 87% 29.24 in 6.2 mi ESE 11.5 mph - N/A   Mostly Cloudy
6:00 AM 39 °F - 34 °F 76% 29.26 in 16 mi ESE 11.5 mph - - Rain Light Rain
6:00 AM 39.2 °F 32.0 °F 33.8 °F 81% 29.24 in 6.2 mi ESE 11.5 mph - N/A   Mostly Cloudy
6:30 AM 39.2 °F 32.0 °F 33.8 °F 81% 29.24 in 6.2 mi ESE 11.5 mph - N/A   Mostly Cloudy
7:00 AM 39 °F - 34 °F 74% 29.26 in 16 mi ESE 10.4 mph - - Rain Light Rain
7:00 AM 39.2 °F 32.0 °F 33.8 °F 81% 29.24 in 6.2 mi ESE 11.5 mph - N/A Rain Light Rain
7:30 AM 39.2 °F 32.0 °F 33.8 °F 81% 29.24 in 6.2 mi ESE 11.5 mph - N/A Rain Light Rain
8:00 AM 39 °F - 33 °F 70% 29.27 in 9 mi East 11.5 mph - - Rain Light Rain
8:00 AM 39.2 °F 32.0 °F 33.8 °F 81% 29.24 in 6.2 mi East 11.5 mph - N/A   Mostly Cloudy
8:30 AM 39.2 °F 32.0 °F 32.0 °F 75% 29.24 in 6.2 mi East 11.5 mph - N/A   Mostly Cloudy
9:00 AM 39 °F - 32 °F 69% 29.28 in 16 mi East 9.2 mph - -   Mostly Cloudy
9:00 AM 39.2 °F 33.0 °F 32.0 °F 75% 29.27 in - East 9.2 mph - N/A   Clear
9:30 AM 39.2 °F 32.0 °F 32.0 °F 75% 29.27 in 6.2 mi East 11.5 mph - N/A   Mostly Cloudy
10:00 AM 40 °F - 33 °F 67% 29.29 in 12 mi East 11.5 mph - - Rain Light Rain
10:00 AM 39.2 °F 32.0 °F 33.8 °F 81% 29.27 in 6.2 mi East 11.5 mph - N/A Rain Light Rain
10:30 AM 39.2 °F 31.2 °F 32.0 °F 75% 29.27 in 6.2 mi East 13.8 mph - N/A Rain Light Rain
11:00 AM 39 °F - 33 °F 73% 29.30 in 9 mi East 11.5 mph - - Rain Light Rain
11:00 AM 39.2 °F 32.0 °F 33.8 °F 81% 29.27 in 6.2 mi East 11.5 mph - N/A Rain Light Rain
11:30 AM 39.2 °F 30.8 °F 33.8 °F 81% 29.30 in 6.2 mi East 15.0 mph - N/A Rain Light Rain
12:00 PM 38 °F - 34 °F 78% 29.31 in 4 mi East 16.1 mph - - Rain Light Rain
12:00 PM 37.4 °F 28.5 °F 33.8 °F 87% 29.30 in 4.3 mi East 15.0 mph - N/A Rain Light Rain
12:30 PM 37.4 °F 28.5 °F 33.8 °F 87% 29.27 in 5.6 mi East 15.0 mph - N/A Rain , Snow Light Rain
1:00 PM 37 °F - 35 °F 87% 29.31 in 4 mi East 12.7 mph - - Rain Light Rain
1:00 PM 37.4 °F 29.3 °F 35.6 °F 93% 29.27 in 3.7 mi East 12.7 mph - N/A Rain Light Rain
1:30 PM 37.4 °F 29.3 °F 35.6 °F 93% 29.27 in 6.2 mi East 12.7 mph - N/A Rain Light Rain
2:00 PM 39 °F - 36 °F 86% 29.30 in 6 mi ENE 9.2 mph - - Rain Light Rain
2:00 PM 39.2 °F 33.0 °F 35.6 °F 87% 29.27 in 5.6 mi ENE 9.2 mph - N/A Rain Light Rain
2:30 PM 39.2 °F 33.6 °F 37.4 °F 93% 29.27 in 3.7 mi East 8.1 mph - N/A   Light Drizzle
3:00 PM 39 °F - 37 °F 90% 29.31 in 3 mi East 4.6 mph - - Rain Light Rain
3:00 PM 39.2 °F 35.9 °F 37.4 °F 93% 29.27 in 2.8 mi East 4.6 mph - N/A Rain Rain
3:30 PM 39.2 °F - 37.4 °F 93% 29.30 in 2.8 mi Variable 2.3 mph - N/A   Light Drizzle
4:00 PM 40 °F - 38 °F 88% 29.33 in 4 mi WSW 6.9 mph - - Rain Light Rain
4:00 PM 39.2 °F 35.0 °F 37.4 °F 93% 29.30 in 3.7 mi WSW 5.8 mph - N/A Rain Light Rain
4:30 PM 39.2 °F 35.0 °F 37.4 °F 93% 29.33 in 2.5 mi WSW 5.8 mph - N/A   Light Drizzle
5:00 PM 39 °F - 38 °F 92% 29.36 in 5 mi WSW 6.9 mph - - Rain Light Drizzle
5:00 PM 39.2 °F 35.0 °F 37.4 °F 93% 29.33 in 5.0 mi WSW 5.8 mph - N/A   Mostly Cloudy
5:30 PM 39.2 °F 35.9 °F 37.4 °F 93% 29.36 in 6.2 mi WSW 4.6 mph - N/A   Mostly Cloudy
6:00 PM 39 °F - 38 °F 92% 29.39 in 4 mi South 4.6 mph - - Rain Light Drizzle
6:00 PM 39.2 °F 35.9 °F 37.4 °F 93% 29.36 in 4.3 mi South 4.6 mph - N/A   Light Drizzle
6:30 PM 39.2 °F 35.9 °F 37.4 °F 93% 29.39 in 5.0 mi South 4.6 mph - N/A   Mostly Cloudy
7:00 PM 40 °F - 38 °F 90% 29.42 in 5 mi South 4.6 mph - - Rain Light Drizzle
7:00 PM 39.2 °F 35.9 °F 37.4 °F 93% 29.39 in 5.0 mi South 4.6 mph - N/A   Mostly Cloudy
7:30 PM 41.0 °F 38.0 °F 37.4 °F 87% 29.42 in 5.0 mi SSE 4.6 mph - N/A   Mostly Cloudy
8:00 PM 40 °F - 38 °F 90% 29.44 in 7 mi SSE 5.8 mph - -   Overcast
8:00 PM 41.0 °F 37.1 °F 37.4 °F 87% 29.42 in 6.2 mi SSE 5.8 mph - N/A   Mostly Cloudy
8:30 PM 41.0 °F 35.8 °F 37.4 °F 87% 29.42 in 6.2 mi South 8.1 mph - N/A   Light Drizzle
9:00 PM 40 °F - 38 °F 91% 29.46 in 6 mi South 6.9 mph - - Rain Light Rain
9:00 PM 41.0 °F 36.4 °F 39.2 °F 93% 29.44 in 6.2 mi South 6.9 mph - N/A   Mostly Cloudy
9:30 PM 41.0 °F 37.1 °F 39.2 °F 93% 29.44 in 6.2 mi SSE 5.8 mph - N/A   Mostly Cloudy
10:00 PM 41 °F - 38 °F 87% 29.48 in 6 mi South 5.8 mph - -   Partly Cloudy
10:00 PM 41.0 °F 37.1 °F 39.2 °F 93% 29.44 in 6.2 mi South 5.8 mph - N/A   Mostly Cloudy
10:30 PM 41.0 °F 37.1 °F 39.2 °F 93% 29.47 in 6.2 mi South 5.8 mph - N/A   Mostly Cloudy
11:00 PM 41 °F - 39 °F 89% 29.50 in 5 mi South 5.8 mph - -   Mostly Cloudy
11:00 PM 41.0 °F 37.1 °F 39.2 °F 93% 29.47 in 5.0 mi South 5.8 mph - N/A   Mostly Cloudy
11:30 PM 41.0 °F 37.1 °F 39.2 °F 93% 29.47 in 4.3 mi SSE 5.8 mph - N/A   Mostly Cloudy